WetterOnline ( https://www.wetteronline.de )

Wetter aktuell Koblenz

Aktuelles Wetter: Andernach (75m)

6-stündlich | Neueste Meldungen
Ortszeit Temperatur Wetter
Di, 26.05. 14:00 20.6° C fast wolkenlos
Di, 26.05. 8:00 11.8° C wolkenlos
Di, 26.05. 2:00 9.2° C wolkenlos
Mo, 25.05. 20:00 19.1° C leicht bewölkt
Mo, 25.05. 14:00 18.0° C bedeckt
Mo, 25.05. 8:00 13.9° C bewölkt
Mo, 25.05. 2:00 12.6° C bedeckt
So, 24.05. 20:00 15.0° C bewölkt
Ortszeit Temperatur Wetter
Di, 26.05. 15:30 21.2° C leicht bewölkt
Di, 26.05. 15:20 21.2° C leicht bewölkt
Di, 26.05. 15:10 21.1° C leicht bewölkt
Di, 26.05. 15:00 21.2° C fast wolkenlos
Di, 26.05. 14:50 21.2° C fast wolkenlos
Di, 26.05. 14:40 20.8° C leicht bewölkt
Di, 26.05. 14:30 20.7° C leicht bewölkt
Di, 26.05. 14:00 20.6° C fast wolkenlos
Di, 26.05. 13:30 19.7° C wolkig
Di, 26.05. 13:00 19.5° C wolkig
Di, 26.05. 12:30 18.5° C bedeckt
Ortszeit Relative Feuchte Sichtweite
Di, 26.05. 14:00 41% 35 km
Di, 26.05. 8:00 75% 40 km
Di, 26.05. 2:00 88% 35 km
Mo, 25.05. 20:00 49% 50 km
Mo, 25.05. 14:00 56% 45 km
Mo, 25.05. 8:00 78% 30 km
Mo, 25.05. 2:00 90% 30 km
So, 24.05. 20:00 72% 35 km
Ortszeit Relative Feuchte Sichtweite
Di, 26.05. 15:30 36% >70 km
Di, 26.05. 15:20 36% -
Di, 26.05. 15:10 37% -
Di, 26.05. 15:00 38% 55 km
Di, 26.05. 14:50 38% -
Di, 26.05. 14:40 39% -
Di, 26.05. 14:30 39% 55 km
Di, 26.05. 14:00 41% 35 km
Di, 26.05. 13:30 40% 40 km
Di, 26.05. 13:00 39% 60 km
Di, 26.05. 12:30 43% 50 km
Ortszeit Niederschlagsmenge Niederschlagsart
Di, 26.05. 14:00 0.0 l/m2 in 6 Std. -
Di, 26.05. 8:00 0.0 l/m2 in 12 Std. -
Di, 26.05. 2:00 0.0 l/m2 in 6 Std. -
Mo, 25.05. 20:00 0.0 l/m2 in 12 Std. -
Mo, 25.05. 14:00 0.0 l/m2 in 6 Std. -
Mo, 25.05. 8:00 0.3 l/m2 in 12 Std. Regen
Mo, 25.05. 2:00 0.3 l/m2 in 6 Std. Regen
So, 24.05. 20:00 0.1 l/m2 in 12 Std. Regen
Ortszeit Niederschlagsmenge Niederschlagsart
Di, 26.05. 15:30 0.0 l/m2 in 1 Std. -
Di, 26.05. 15:20 keine Meldung -
Di, 26.05. 15:10 keine Meldung -
Di, 26.05. 15:00 0.0 l/m2 in 1 Std. -
Di, 26.05. 14:50 keine Meldung -
Di, 26.05. 14:40 keine Meldung -
Di, 26.05. 14:30 0.0 l/m2 in 1 Std. -
Di, 26.05. 14:00 0.0 l/m2 in 1 Std. -
Di, 26.05. 13:30 0.0 l/m2 in 1 Std. -
Di, 26.05. 13:00 0.0 l/m2 in 1 Std. -
Di, 26.05. 12:30 0.0 l/m2 in 1 Std. -
Ortszeit Stärke Spitze Richtung
km/h Bft. km/h Grad Sektor
Di, 26.05. 14:00 11 2 25 40° NO
Di, 26.05. 8:00 0 0 11 - -
Di, 26.05. 2:00 7 2 25 210° SW
Mo, 25.05. 20:00 13 3 31 360° N
Mo, 25.05. 14:00 14 3 32 330° NW
Mo, 25.05. 8:00 11 2 22 330° NW
Mo, 25.05. 2:00 0 0 22 - -
So, 24.05. 20:00 7 2 36 270° W
Ortszeit Stärke Spitze Richtung
km/h Bft. km/h Grad Sektor
Di, 26.05. 15:30 9 2 24 20° N
Di, 26.05. 15:20 9 2 - 20° N
Di, 26.05. 15:10 13 3 - 70° O
Di, 26.05. 15:00 11 2 25 350° N
Di, 26.05. 14:50 11 2 - 350° N
Di, 26.05. 14:40 9 2 - 20° N
Di, 26.05. 14:30 7 2 22 90° O
Di, 26.05. 14:00 11 2 22 40° NO
Di, 26.05. 13:30 7 2 22 330° NW
Di, 26.05. 13:00 11 2 25 360° N
Di, 26.05. 12:30 13 3 22 320° NW
Ortszeit Untergrenze Bedeckung Gattung
total tief tief mittel hoch
Di, 26.05. 14:00 7500 m 1/8 0/8 - - -
Di, 26.05. 8:00 - 0/8 0/8 - - -
Di, 26.05. 2:00 - 0/8 0/8 - - -
Mo, 25.05. 20:00 1470 m 3/8 3/8 - - -
Mo, 25.05. 14:00 1080 m 8/8 8/8 - - -
Mo, 25.05. 8:00 2100 m 7/8 7/8 - - -
Mo, 25.05. 2:00 780 m 8/8 8/8 - - -
So, 24.05. 20:00 1110 m 7/8 7/8 - - -
Ortszeit Bedeckungsgrad in Achtel und Wolkenuntergrenze
Di, 26.05. 15:30 3(1500m) 3(2100m) 5(10500m)
Di, 26.05. 15:20 3(1500m) 3(2100m) 5(10500m)
Di, 26.05. 15:10 3(10500m)
Di, 26.05. 15:00 1(1500m)
Di, 26.05. 14:50 1(1500m)
Di, 26.05. 14:40 3(1500m) 3(2100m)
Di, 26.05. 14:30 3(1500m) 4(2100m)
Di, 26.05. 14:00 1(7500m)
Di, 26.05. 13:30 2(1500m) 7(6600m) 7(7500m)
Di, 26.05. 13:00 7(6600m) 8(7500m) 8(8100m)
Di, 26.05. 12:30 8(6900m) 8(7800m)
Ortszeit Luftdruck NN (hPa) Tendenz (hPa in 3 Std.)
Di, 26.05. 14:00 1034 - 0,7
Di, 26.05. 8:00 1035 + 0,7
Di, 26.05. 2:00 1034 + 0,5
Mo, 25.05. 20:00 1032 + 0,1
Mo, 25.05. 14:00 1033 - 0,1
Mo, 25.05. 8:00 1033 + 0,5
Mo, 25.05. 2:00 1032 + 0,1
So, 24.05. 20:00 1030 + 0,5
Ortszeit Luftdruck NN (hPa) Tendenz (hPa in 3 Std.)
Di, 26.05. 15:30 1034 - 0,9
Di, 26.05. 15:20 1034 keine Meldung
Di, 26.05. 15:10 1034 keine Meldung
Di, 26.05. 15:00 1034 - 0,9
Di, 26.05. 14:50 1034 keine Meldung
Di, 26.05. 14:40 1034 keine Meldung
Di, 26.05. 14:30 1034 - 0,8
Di, 26.05. 14:00 1034 - 0,7
Di, 26.05. 13:30 1034 - 0,5
Di, 26.05. 13:00 1035 - 0,6
Di, 26.05. 12:30 1035 - 0,5
Ortszeit Schneehöhe (cm)
Di, 26.05. 14:00 -
Di, 26.05. 8:00 -
Di, 26.05. 2:00 -
Mo, 25.05. 20:00 -
Mo, 25.05. 14:00 -
Mo, 25.05. 8:00 -
Mo, 25.05. 2:00 -
So, 24.05. 20:00 -
Ortszeit Schneehöhe (cm)
Di, 26.05. 15:30 -
Di, 26.05. 15:20 -
Di, 26.05. 15:10 -
Di, 26.05. 15:00 -
Di, 26.05. 14:50 -
Di, 26.05. 14:40 -
Di, 26.05. 14:30 -
Di, 26.05. 14:00 -
Di, 26.05. 13:30 -
Di, 26.05. 13:00 -
Di, 26.05. 12:30 -
Link zu dieser Seite / Seite empfehlen

Das Wetter in ...